Regional Weather Roundup
Issued by NWS Midland/Odessa, TX

Home | Current Version | Previous Version | Text Only | Print | Product List | Glossary On
Versions: 1 2 3 4 5 6 7 8 9 10 11 12 13 14 15 16 17 18 19 20 21 22 23 24 25 26 27 28 29 30 31 32 33 34 35 36 37 38 39 40 41 42 43 44 45 46 47 48 49 50
000
ASUS44 KMAF 250510
RWRMAF
MIDLAND AREA WEATHER ROUNDUP
NATIONAL WEATHER SERVICE MIDLAND TX
1200 AM CDT SAT APR 25 2015

...IN SOUTHWEST TEXAS AND SOUTHEAST NEW MEXICO...

CITY           SKY/WX    TMP DP  RH WIND       PRES   REMARKS
ALPINE         CLEAR     49  33  53 W10       30.02S
ANDREWS        FAIR      60  27  28 W12G17    29.86R
ARTESIA        CLEAR     63  28  27 SW16      29.87S
BIG SPRING     CLEAR     61  29  29 S10       29.84S
CARLSBAD       CLEAR     59  27  29 N3        29.86S
DRYDEN           N/A     69  65  86 N5        29.83S
FORT STOCKTON  CLEAR     62  27  26 W10       29.89R
GUAD PASS      CLEAR     57  26  30 SW32G47   29.95R
HOBBS          CLEAR     57  25  28 SW10      29.88S
MARFA          CLEAR     55  28  35 NW12      30.00F
MIDLAND AIRPK  CLEAR     67  27  22 W13G20    29.84R
MIDLAND INTL   CLEAR     67  27  22 W15       29.83R
ODESSA         CLEAR     66  23  19 W16       29.84S
PECOS          CLEAR     64  26  23 W12       29.88R
PRESIDIO       FAIR      65  23  20 CALM      29.90R
SEMINOLE       CLEAR     59  27  29 W13       29.86S
SNYDER         CLEAR     57  39  50 W7        29.80R
WINK           CLEAR     63  20  19 W10       29.85R
$$
...OTHER STATIONS IN TEXAS...

CITY           SKY/WX    TMP DP  RH WIND       PRES   REMARKS
ABILENE        CLEAR     63  57  81 SW7       29.76S
AMARILLO       CLEAR     62  27  26 W24G33    29.70R
AUSTIN         CLOUDY    73  72  96 S5        29.72F
BROWNSVILLE    CLOUDY    77  69  76 NW13G29   29.82R
CORPUS CHRISTI TSTM      77  75  93 S18       29.78R FOG
DALLAS FTW     CLOUDY    61  61 100 SE8       29.68F
DEL RIO        CLOUDY    74  71  91 CALM      29.76R FOG
EL PASO        PTCLDY    66  27  23 W14G21    29.95R
HOUSTON INT    CLOUDY    79  74  84 SW8       29.80R
LUBBOCK        CLEAR     59  30  33 W12       29.79R
SAN ANGELO     CLEAR     61  53  75 S5        29.79F
SAN ANTONIO    MOCLDY    76  73  91 SW6       29.77S
WACO           CLOUDY    68  62  81 SW7       29.71F
WICHITA FALLS  NOT AVBL
$$
...OTHER LOCATIONS IN NEW MEXICO...

CITY           SKY/WX    TMP DP  RH WIND       PRES   REMARKS
ALAMAGORDO     CLEAR     59  28  31 E6        29.97R
ALBUQUERQUE    PTCLDY    53  33  46 W9        29.96R
CANNON AFB     CLEAR     55  31  39 W13       29.82S
CLOVIS         CLEAR     57  28  33 W15       29.81F
HOLLOMAN AFB   CLEAR     58  30  34 SW10      29.94R
ROSWELL        CLEAR     49  35  58 S7        29.86R
RUIDOSO        CLEAR     46  25  42 W10       30.01R
SANTA FE       MOCLDY    43  27  53 N6        29.96R WCI  39
TRUTH OR CONSE CLEAR     56  28  34 W12       29.97R
TUCUMCARI      CLEAR     58  26  29 W15       29.77R
$$


USA.gov is the U.S. government's official web portal to all federal, state and local government web resources and services.